Weather Data

Pearl Creek Farm: 8878 N Farm Road 75, Walnut Grove MO 65770

<== Previous Day (Tuesday 15 Sep 2015) | Next Day (Thursday 17 Sep 2015) ==>

Summary Precipitation Data For Wednesday 16 September 2015

ElementValueUnits
Precipitation0"
Notes(none)
SourcePearl Creek Farm

Summary Temperature Data For Wednesday 16 September 2015

ElementValueUnits
High Temperature86 oF
Low Temperature65 oF
Average Temperature75 oF
High Humidity86 %
Low Humidity68 %
Average Humidity78 %
SourcePearl Creek Farm

Detail Temperature Data For Wednesday 16 September 2015

Date / TimeTemp (F)RH (%)Dew Pt (F)Report Date / TimeSource
2015-09-16 00:00:00 68 78 60.9 2015-11-18 13:17:03 Pearl Creek Farm
2015-09-16 00:30:00 68 79 61.1 2015-11-18 13:17:03 Pearl Creek Farm
2015-09-16 01:00:00 68 78 60.9 2015-11-18 13:17:03 Pearl Creek Farm
2015-09-16 01:30:00 68 79 61.2 2015-11-18 13:17:03 Pearl Creek Farm
2015-09-16 02:00:00 67 80 60.5 2015-11-18 13:17:03 Pearl Creek Farm
2015-09-16 02:30:00 67 80 60.5 2015-11-18 13:17:03 Pearl Creek Farm
2015-09-16 03:00:00 67 80 60.6 2015-11-18 13:17:03 Pearl Creek Farm
2015-09-16 03:30:00 67 80 60.5 2015-11-18 13:17:03 Pearl Creek Farm
2015-09-16 04:00:00 66 80 59.5 2015-11-18 13:17:03 Pearl Creek Farm
2015-09-16 04:30:00 66 80 59.5 2015-11-18 13:17:03 Pearl Creek Farm
2015-09-16 05:00:00 66 80 59.5 2015-11-18 13:17:03 Pearl Creek Farm
2015-09-16 05:30:00 66 80 59.7 2015-11-18 13:17:03 Pearl Creek Farm
2015-09-16 06:00:00 65 81 58.9 2015-11-18 13:17:03 Pearl Creek Farm
2015-09-16 06:30:00 66 80 59.5 2015-11-18 13:17:03 Pearl Creek Farm
2015-09-16 07:00:00 66 80 59.5 2015-11-18 13:17:03 Pearl Creek Farm
2015-09-16 07:30:00 66 80 59.5 2015-11-18 13:17:03 Pearl Creek Farm
2015-09-16 08:00:00 66 80 59.5 2015-11-18 13:17:03 Pearl Creek Farm
2015-09-16 08:30:00 67 81 60.8 2015-11-18 13:17:03 Pearl Creek Farm
2015-09-16 09:00:00 69 80 62.6 2015-11-18 13:17:03 Pearl Creek Farm
2015-09-16 09:30:00 71 78 63.8 2015-11-18 13:17:03 Pearl Creek Farm
2015-09-16 10:00:00 73 78 65.7 2015-11-18 13:17:03 Pearl Creek Farm
2015-09-16 10:30:00 74 78 66.7 2015-11-18 13:17:03 Pearl Creek Farm
2015-09-16 11:00:00 76 78 68.5 2015-11-18 13:17:03 Pearl Creek Farm
2015-09-16 11:30:00 78 76 69.8 2015-11-18 13:17:03 Pearl Creek Farm
2015-09-16 12:00:00 79 76 70.8 2015-11-18 13:17:03 Pearl Creek Farm
2015-09-16 12:30:00 81 75 72.3 2015-11-18 13:17:03 Pearl Creek Farm
2015-09-16 13:00:00 82 74 72.7 2015-11-18 13:17:03 Pearl Creek Farm
2015-09-16 13:30:00 84 72 73.8 2015-11-18 13:17:03 Pearl Creek Farm
2015-09-16 14:00:00 85 70 73.9 2015-11-18 13:17:03 Pearl Creek Farm
2015-09-16 14:30:00 86 68 74.2 2015-11-18 13:17:03 Pearl Creek Farm
2015-09-16 15:00:00 86 68 74.2 2015-11-18 13:17:03 Pearl Creek Farm
2015-09-16 15:30:00 86 68 74.2 2015-11-18 13:17:03 Pearl Creek Farm
2015-09-16 16:00:00 86 69 74.4 2015-11-18 13:17:03 Pearl Creek Farm
2015-09-16 16:30:00 86 69 74.6 2015-11-18 13:17:03 Pearl Creek Farm
2015-09-16 17:00:00 85 69 73.7 2015-11-18 13:17:03 Pearl Creek Farm
2015-09-16 17:30:00 84 72 73.8 2015-11-18 13:17:03 Pearl Creek Farm
2015-09-16 18:00:00 83 72 72.8 2015-11-18 13:17:03 Pearl Creek Farm
2015-09-16 18:30:00 82 73 72.3 2015-11-18 13:17:03 Pearl Creek Farm
2015-09-16 19:00:00 81 75 72.1 2015-11-18 13:17:03 Pearl Creek Farm
2015-09-16 19:30:00 79 77 71.2 2015-11-18 13:17:03 Pearl Creek Farm
2015-09-16 20:00:00 77 80 70.2 2015-11-18 13:17:03 Pearl Creek Farm
2015-09-16 20:30:00 76 81 69.7 2015-11-18 13:17:03 Pearl Creek Farm
2015-09-16 21:00:00 76 83 70.3 2015-11-18 13:17:03 Pearl Creek Farm
2015-09-16 21:30:00 76 84 70.6 2015-11-18 13:17:03 Pearl Creek Farm
2015-09-16 22:00:00 75 85 70.0 2015-11-18 13:17:03 Pearl Creek Farm
2015-09-16 22:30:00 75 85 70.0 2015-11-18 13:17:03 Pearl Creek Farm
2015-09-16 23:00:00 75 85 70.2 2015-11-18 13:17:03 Pearl Creek Farm
2015-09-16 23:30:00 74 86 69.4 2015-11-18 13:17:03 Pearl Creek Farm

A total of 48 rows are displayed.